カタログに戻る

DELTA 1 DEB

運用中SSO
NORAD 2118·DEBRIS·🇺🇸 United States

打ち上げ Feb 3, 1966 から Cape Canaveral Space Force Station

Loading…

次のパス (今後24時間)

TLE

最新Source: Space-Track

元期: Sep 14, 2026, 13:57 UTC

1 02118U 66008D   26257.58152317  .00000294  00000-0  85476-4 0  9995
2 02118  98.0719  25.4859 0124543 309.2912  49.7288 14.46998564148755

AllMySatでDELTA 1 DEBをリアルタイム追跡

Download on the App Store